This is the latest recevied weather packets stored in our database for station/object ZL1CTS-13. If no packets are shown the sender has not sent any weather packets the latest 10 day(s).
| Time | Temp. | Humidity | Pressure | Rain* | Wind** | Luminosity | Snow |
|---|---|---|---|---|---|---|---|
| 1788314403 | 16.67° C | 78% | 1008.8 hPa | 0 mm | - | - | - |
| 1788314105 | 16.67° C | 75% | 1008.8 hPa | 0 mm | - | - | - |
| 1788313803 | 17.78° C | 75% | 1008.9 hPa | 0 mm | - | - | - |
| 1788313505 | 17.22° C | 73% | 1009.1 hPa | 0 mm | - | - | - |
| 1788313504 | 17.22° C | 73% | 1009.1 hPa | 0 mm | - | - | - |
| 1788313203 | 17.78° C | 73% | 1009 hPa | 0 mm | - | - | - |
| 1788312904 | 17.78° C | 75% | 1009.1 hPa | 0 mm | - | - | - |
| 1788312605 | 17.22° C | 76% | 1009.2 hPa | 0 mm | - | - | - |
| 1788312603 | 17.22° C | 76% | 1009.2 hPa | 0 mm | - | - | - |
| 1788312304 | 17.22° C | 80% | 1009.1 hPa | 0 mm | - | - | - |
| 1788312004 | 16.67° C | 81% | 1009.2 hPa | 0 mm | - | - | - |
| 1788311713 | 16.11° C | 82% | 1009.4 hPa | 0 mm | - | - | - |
| 1788311704 | 16.11° C | 82% | 1009.4 hPa | 0 mm | - | - | - |
| 1788311404 | 16.67° C | 88% | 1009.4 hPa | 0 mm | - | - | - |
| 1788311104 | 16.11° C | 89% | 1009.3 hPa | 0 mm | - | - | - |
| 1788310806 | 15.56° C | 88% | 1009.5 hPa | 0 mm | - | - | - |
| 1788310804 | 15.56° C | 88% | 1009.5 hPa | 0 mm | - | - | - |
| 1788310504 | 15.56° C | 83% | 1009.6 hPa | 0 mm | - | - | - |
| 1788310203 | 16.67° C | 82% | 1009.6 hPa | 0 mm | - | - | - |
| 1788309905 | 16.11° C | 82% | 1009.5 hPa | 0 mm | - | - | - |
| 1788309903 | 16.11° C | 82% | 1009.5 hPa | 0 mm | - | - | - |
| 1788309604 | 16.67° C | 82% | 1009.5 hPa | 0 mm | - | - | - |
| 1788309304 | 16.67° C | 82% | 1009.5 hPa | 0 mm | - | - | - |
| 1788309005 | 16.11° C | 82% | 1009.6 hPa | 0 mm | - | - | - |
| 1788309004 | 16.11° C | 82% | 1009.6 hPa | 0 mm | - | - | - |
* Rain latest hour (hover to see other rain measurements)
** Current wind speed in m/s (hover to see current wind gust speed)